Tracking 28081 objects as of 27-Sep-2023
HD Live streaming from Space Station
objects crossing your sky now

ITALSAT 1

Track ITALSAT 1 now!
ITALSAT 1 is classified as:


NORAD ID: 21055
Int'l Code: 1991-003A
Perigee: 35,832.5 km
Apogee: 35,931.6 km
Inclination: 14.8 °
Period: 1,440.6 minutes
Semi major axis: 42253 km
RCS: 3.4358 m2 (large)
Launch date: January 15, 1991
Source: Italy (IT)
Launch site: FRENCH GUIANA (FRGUI)
Your satellite tracking list
Your tracking list is empty




NASA's NSSDC Master Catalog

Two Line Element Set (TLE):
1 21055U 91003A   23269.27999061  .00000029  00000-0  00000-0 0  9992
2 21055  14.7825 359.0839 0011729  51.3599 291.7650  0.99957543107134
Source of the keplerian elements: AFSPC